Location: East Arcadia
(34.1056°N, 118.0176°W)
Time: 02:13:00
(UTC+00:00)

Cosmos 1980 Rocket - Pass Details

Date: 01 April 2023
Orbit: 830 x 848 km, 71.0° (Epoch: 08 June)

Event Time Altitude Azimuth Distance (km) Brightness Sun altitude
Exits shadow 12:06:29 - 184° (S) 3,249 5.0 -19.6°
Reaches altitude 10° 12:08:36 10° 179° (S) 2,461 4.4 -19.2°
Maximum altitude 12:14:02 49° 106° (ESE) 1,085 3.1 -18.1°
Drops below altitude 10° 12:19:28 10° 33° (NNE) 2,474 5.4 -17.0°
Sets 12:21:59 0° 28° (NNE) 3,411 6.1 -16.5°
